Back to catalog

STARLINK-6129

AliveCommunicationsVLEO
NORAD 57116·PAYLOAD·🇺🇸 United States

Launched Jun 23, 2023 from Cape Canaveral Space Force Station

Loading…

Next Passes (next 24 hours)

TLE

FreshSource: CelesTrak SupGP

Epoch: Sep 15, 2026, 02:40 UTC

1 57116C 23090R   26258.11159722  .00012528  00000+0  45373-3 0  2585
2 57116  43.0017 291.4803 0001776 269.5043 167.2927 15.27574757    19

Track STARLINK-6129 in real time with AllMySat

Download on the App Store